Wind_Speed
82 82 82 83 83 84 83 82 80 77 76 78 80 83 88 92 95 94 92 89 87 85 82 80 78 76 74 73 71 71 70 69 68 68 68 68 68 68 68 69 69 68 68 68 68 68 68 68 68 68 68 68 68 68 69 69 69 69 69 70 71 72 72 72 72 72 70 65 61 59 60 61 64 66 62 62 66 67 64 58 55 55 54 55 54 52 51 51
83 83 84 84 84 85 85 85 84 82 79 77 78 81 83 88 93 95 94 93 90 87 84 82 80 78 76 74 72 72 71 70 69 70 69 68 69 69 69 70 70 70 69 69 69 69 69 69 69 69 69 69 69 69 70 69 69 70 70 71 73 72 71 72 73 72 69 67 65 62 62 63 67 68 63 60 65 68 65 59 56 56 56 57 56 54 53 52
83 84 84 85 85 85 86 86 86 85 84 80 78 79 81 84 88 93 95 95 93 90 87 84 82 80 78 75 74 73 72 71 71 71 70 69 70 70 70 71 71 70 70 70 70 70 70 70 70 70 70 70 70 70 70 69 70 70 70 72 73 72 72 71 72 71 69 67 66 65 63 64 68 69 63 60 66 69 64 59 56 57 59 59 57 56 55 54
83 83 84 85 85 86 86 87 87 87 87 85 82 78 79 82 85 89 94 95 94 93 90 87 84 82 79 77 75 74 73 71 71 71 70 70 70 70 71 71 71 71 70 70 70 70 70 70 70 70 70 70 70 70 69 69 70 70 71 73 73 72 71 71 70 70 68 67 67 66 64 64 66 66 62 62 67 68 63 58 57 57 60 61 59 58 57 55
81 82 83 84 84 85 86 86 87 87 87 87 86 82 79 80 83 85 90 94 95 94 92 90 87 83 81 78 76 75 73 72 71 71 71 70 70 70 71 70 70 70 70 70 70 70 70 69 69 69 69 69 69 69 69 69 69 69 70 72 71 70 70 69 69 68 67 67 67 66 64 63 64 63 62 64 67 65 61 60 58 58 60 62 62 60 58 57
79 80 81 82 82 83 84 85 86 87 87 88 88 86 81 79 81 83 86 91 94 94 93 92 89 85 82 79 77 75 73 71 71 72 71 71 70 70 70 69 69 69 69 69 69 69 69 69 68 68 68 68 68 67 67 67 67 67 69 70 69 68 68 68 67 66 65 66 66 65 63 61 62 62 64 67 66 61 61 61 59 58 60 62 63 62 59 58
76 77 78 79 80 81 82 83 84 85 86 87 88 89 86 80 79 82 84 87 92 93 92 91 90 87 83 80 77 75 73 71 72 72 71 70 70 69 68 68 68 68 68 67 67 67 67 67 67 67 66 66 65 65 64 64 64 64 66 67 66 65 65 65 65 64 63 66 66 63 61 60 61 62 65 68 64 60 61 62 59 58 61 63 63 63 60 58
74 75 76 77 78 79 80 81 83 84 85 86 87 89 88 84 79 81 83 85 89 92 93 91 89 87 83 80 77 75 73 70 71 72 71 69 69 68 67 67 66 66 66 65 65 65 65 65 65 65 64 64 63 62 61 61 60 61 64 64 63 63 62 63 64 63 62 65 65 62 60 60 60 61 64 67 64 61 61 61 59 59 62 63 62 61 60 59
73 74 75 77 78 78 80 81 82 83 84 85 86 88 89 86 81 80 82 84 86 90 92 91 88 86 83 80 78 76 72 70 71 72 70 69 68 67 66 66 65 65 64 63 63 63 63 62 62 62 62 61 59 58 58 58 59 60 61 62 61 61 61 61 61 61 61 63 63 62 60 59 60 60 63 67 66 62 61 60 59 61 63 62 61 60 59 59
74 76 77 78 79 79 80 81 82 82 83 84 85 87 87 86 82 80 81 83 85 88 91 91 88 85 83 80 78 75 72 71 72 71 70 69 68 67 66 65 64 63 62 61 61 60 60 60 60 59 59 58 58 58 57 57 57 57 58 58 59 60 61 59 58 58 59 60 61 61 60 59 59 60 62 67 67 61 59 58 59 62 63 62 60 59 59 58
76 77 78 79 79 80 80 81 81 81 82 83 84 85 86 86 83 80 81 82 84 85 89 90 88 84 82 80 78 74 73 73 73 71 70 69 68 67 66 64 63 62 61 60 59 59 59 59 58 57 57 56 56 57 56 55 55 54 55 56 56 58 59 59 58 59 57 57 58 59 58 58 60 61 63 68 66 60 57 57 59 63 64 62 61 60 59 58
77 78 78 79 78 78 78 79 80 80 81 81 82 83 84 84 82 80 80 82 83 84 87 89 88 85 82 80 78 75 74 74 73 71 70 69 67 66 65 64 62 61 60 59 59 59 59 58 57 56 55 55 56 56 55 55 54 53 54 55 55 56 57 59 60 59 56 54 56 56 56 57 60 62 64 67 64 58 55 54 59 63 64 63 62 61 60 58
77 76 75 74 73 73 73 74 75 76 78 79 80 81 82 83 82 80 80 82 82 83 85 87 88 85 82 81 78 75 76 75 72 71 70 69 67 66 65 63 62 61 60 59 59 59 59 58 57 55 54 55 55 54 54 54 53 53 54 54 54 55 56 58 58 56 54 54 54 53 53 56 59 61 63 65 62 57 52 52 58 62 63 62 62 62 60 58
73 70 68 66 65 65 66 67 69 72 74 76 78 79 81 81 81 80 80 81 82 82 83 86 87 85 82 80 78 77 77 75 72 70 70 69 68 66 65 63 62 61 59 59 59 59 59 58 56 54 54 55 54 53 54 54 53 53 53 52 53 55 56 57 55 54 54 55 53 50 52 55 57 59 61 62 61 57 49 50 57 60 61 61 59 60 59 57
64 61 60 59 58 59 60 62 65 68 71 73 76 78 79 81 81 80 80 81 81 81 82 84 85 84 82 79 78 77 76 74 72 71 70 69 68 66 65 64 62 60 59 59 59 59 59 58 56 54 55 54 52 53 54 53 52 52 52 52 53 54 55 55 54 53 55 54 50 49 51 53 54 55 58 59 60 56 48 50 55 57 59 58 56 57 56 55
56 55 54 54 54 55 57 59 62 65 68 72 74 77 78 80 80 80 80 80 81 80 81 83 84 83 81 79 78 77 75 74 72 71 70 69 68 66 65 63 61 60 59 58 58 58 58 57 55 54 54 53 52 54 54 53 52 52 52 53 54 55 55 56 54 53 54 52 49 48 51 54 53 53 55 56 57 54 49 51 54 55 58 56 54 54 53 52
50 50 51 50 51 52 55 58 61 64 67 70 73 75 77 79 80 80 79 79 79 79 80 81 82 82 80 80 79 76 74 73 71 70 70 69 67 65 63 61 60 59 58 58 58 57 57 56 54 53 53 52 51 52 50 50 51 52 53 54 55 55 56 57 54 52 54 51 48 49 51 55 54 52 52 53 54 51 49 51 53 55 56 54 53 52 51 50
47 47 47 47 48 51 54 57 60 64 66 69 71 73 76 78 79 78 77 77 78 78 78 79 81 80 79 79 76 73 72 71 70 69 68 67 65 63 62 60 59 58 57 57 57 56 55 54 53 51 51 50 49 48 46 47 50 51 52 52 53 53 54 55 52 51 51 50 49 49 51 54 54 52 52 54 53 49 48 49 51 53 55 53 52 52 50 49
44 44 44 45 47 51 54 58 61 63 65 67 68 70 73 75 76 76 75 75 75 76 76 77 79 78 77 77 75 72 72 71 69 68 66 65 63 62 61 60 58 57 56 57 56 55 54 53 51 50 50 49 49 48 47 49 49 50 51 52 51 51 53 55 53 49 48 48 46 46 49 52 52 51 53 54 52 49 49 48 48 51 55 54 52 52 50 49
40 41 43 45 48 52 55 58 61 63 64 65 66 67 70 71 72 72 71 72 73 74 74 75 77 77 77 76 74 71 71 71 69 67 65 64 62 61 60 59 57 56 56 56 55 54 53 51 50 49 50 49 48 47 47 48 47 48 51 52 52 53 56 57 53 49 48 47 44 43 46 48 51 52 52 52 52 50 49 49 48 49 53 53 52 52 51 50
38 40 42 45 49 53 56 59 61 62 62 62 63 63 65 67 68 68 69 70 71 71 71 74 76 76 75 74 71 68 69 70 68 67 65 63 62 61 60 58 57 56 56 56 54 52 51 49 49 50 48 47 45 44 44 44 44 45 46 49 53 56 57 56 53 50 48 46 44 44 44 46 51 54 52 51 51 52 50 47 47 49 51 51 50 51 50 49
37 39 42 46 51 54 57 59 61 61 59 58 59 59 60 63 64 66 67 68 68 68 69 72 73 74 73 71 68 67 68 67 66 65 64 62 61 60 59 57 56 56 56 53 52 50 49 49 50 49 46 44 43 41 41 41 40 40 41 46 51 53 52 53 54 51 48 46 45 43 41 43 49 52 51 50 50 52 50 47 46 46 47 49 50 49 48 47
37 41 44 48 52 55 57 59 60 59 56 55 55 56 58 60 61 62 63 64 65 65 66 69 71 72 70 68 67 66 67 65 64 63 62 61 60 59 58 57 56 56 54 51 50 49 49 50 49 47 44 41 40 39 39 38 37 36 38 43 46 47 48 51 52 49 46 44 42 40 38 39 45 48 49 50 50 52 53 50 46 44 44 48 51 48 45 46
39 43 47 50 53 55 57 58 58 56 54 52 52 53 55 56 57 59 60 61 62 63 64 66 69 69 68 67 66 66 66 64 61 59 59 59 59 57 56 57 57 55 53 50 49 49 50 50 47 44 41 39 38 37 37 37 37 36 37 39 40 42 44 46 47 45 42 39 38 38 36 38 45 47 47 50 51 53 56 54 49 45 43 47 51 49 45 44
42 46 49 51 53 54 56 56 55 53 51 49 49 51 52 53 54 56 57 58 60 61 62 63 65 66 67 66 65 66 66 63 59 58 58 59 57 56 56 57 56 54 52 50 48 49 50 48 44 42 40 38 37 36 36 36 37 37 37 38 38 39 41 42 43 42 39 38 39 40 39 41 46 48 49 51 53 53 56 57 54 48 43 45 49 48 45 43
44 47 50 52 53 55 55 54 51 49 46 44 46 47 49 51 52 54 55 57 58 58 58 59 61 63 64 63 64 66 65 62 61 59 59 59 57 56 57 56 55 53 52 50 49 49 49 46 44 42 40 38 37 36 36 37 37 36 38 40 40 41 42 43 44 43 42 42 44 43 43 43 45 47 50 51 53 53 54 55 56 52 44 42 44 44 43 41
45 48 50 52 53 54 54 52 49 46 44 43 45 46 47 49 50 52 53 55 56 55 56 57 58 60 61 61 63 64 63 62 61 58 59 60 57 57 57 55 55 53 51 50 48 48 49 46 43 41 40 38 37 37 37 37 36 36 38 40 41 42 43 43 43 44 44 45 45 45 45 44 43 45 48 49 51 52 52 52 55 54 46 39 38 39 40 39
46 48 51 52 53 53 52 50 48 47 46 46 45 45 46 47 48 50 52 54 53 53 54 55 57 58 59 59 60 61 61 61 60 59 60 60 57 57 56 55 55 53 51 49 48 48 48 46 44 42 40 37 37 39 38 36 36 37 39 39 39 41 41 41 42 44 44 43 42 44 46 44 41 41 44 47 49 50 51 51 51 52 46 39 34 34 37 36
46 48 50 51 52 51 50 49 47 46 44 44 43 44 45 46 47 50 52 52 51 52 53 55 56 57 56 57 58 58 58 60 60 59 60 58 56 55 55 55 54 52 50 49 48 48 48 46 45 42 39 37 38 40 38 37 37 40 40 38 38 38 38 39 41 43 41 37 39 44 47 44 40 39 42 46 48 48 49 49 48 48 45 39 33 32 33 27
48 48 49 51 50 49 47 48 47 45 42 41 42 42 43 45 47 50 51 50 50 52 53 54 54 54 55 56 58 58 58 59 58 56 56 56 55 55 55 55 53 51 50 49 48 48 48 47 45 42 39 38 40 41 40 39 39 40 41 40 39 38 37 39 40 40 37 35 40 46 47 45 41 40 42 45 47 48 47 46 45 44 41 36 31 28 25 19
49 49 50 50 49 47 47 48 49 48 45 43 42 42 43 45 48 50 50 50 51 51 53 53 52 52 54 55 56 57 58 57 55 54 56 57 55 54 54 53 52 51 50 49 49 49 48 46 44 43 41 40 42 43 41 40 39 40 42 42 40 39 38 39 40 38 36 38 44 47 46 45 42 41 43 44 45 47 46 42 41 41 37 32 29 24 21 21
50 49 50 50 49 49 49 49 49 48 45 43 42 42 44 45 47 48 50 51 51 51 53 54 52 53 54 54 55 56 56 55 54 55 57 57 55 54 54 53 52 52 51 50 50 50 48 46 45 44 43 43 44 43 41 40 39 40 43 43 41 40 40 40 40 39 39 41 45 46 45 44 43 43 44 44 43 44 42 37 37 38 33 29 26 23 25 29
50 48 50 50 50 50 50 49 48 45 44 43 41 41 43 44 47 50 52 52 51 52 54 54 53 53 53 53 54 54 55 54 54 56 57 56 54 54 54 54 53 52 52 51 50 50 48 46 44 44 44 44 44 43 41 41 40 41 43 42 41 41 41 40 40 40 41 42 44 45 45 43 42 42 42 42 40 39 37 32 33 33 28 26 26 25 28 33
51 49 49 50 51 51 50 50 48 46 44 44 44 42 43 46 49 52 53 52 51 52 53 53 52 52 51 52 53 54 55 54 54 56 56 55 53 53 53 52 51 51 52 51 50 49 47 46 45 45 45 46 45 44 43 43 41 41 42 42 41 41 41 41 41 41 42 42 43 46 46 43 41 40 39 38 35 33 32 28 27 26 24 24 25 26 30 35
50 50 50 50 52 52 50 50 50 48 46 46 47 47 47 50 53 53 53 53 52 53 53 51 51 50 51 53 53 54 55 53 54 55 55 54 53 52 52 52 52 52 53 52 50 50 48 48 49 47 46 47 47 45 44 44 42 41 42 42 41 41 42 42 42 42 43 42 43 47 46 41 41 39 35 33 30 28 28 25 24 24 23 23 24 27 29 34
51 51 52 50 51 51 50 51 51 51 49 48 49 51 53 54 53 53 52 51 50 50 51 49 49 50 53 53 52 53 53 53 54 54 54 53 53 53 53 53 53 53 53 53 52 51 50 50 51 50 47 47 48 47 46 45 44 42 41 41 42 43 43 43 43 43 42 42 44 47 45 40 39 36 30 28 26 25 25 24 24 25 25 25 26 27 28 33
53 52 52 49 49 50 49 50 52 52 51 51 51 52 54 54 53 52 51 48 47 49 50 49 50 52 53 52 52 52 52 53 53 52 53 53 53 54 54 55 55 54 54 54 53 52 51 51 52 50 48 48 49 49 47 46 46 44 41 42 44 45 44 44 44 43 43 42 44 47 44 38 35 30 26 25 25 25 25 24 23 25 28 28 28 28 29 32
56 53 51 50 50 50 49 49 51 52 53 54 54 54 54 53 52 50 49 48 48 49 52 53 53 54 53 53 54 54 53 52 51 51 53 54 53 54 54 55 54 54 54 54 54 52 50 50 51 50 48 48 49 49 48 46 46 45 43 43 45 45 45 44 43 43 43 42 44 45 41 33 28 27 26 24 22 21 22 23 23 24 28 31 32 31 31 33
57 56 54 52 52 52 52 51 50 52 55 56 55 54 54 55 53 51 51 52 52 53 55 55 54 55 54 54 55 56 55 54 53 52 54 54 54 55 56 56 55 55 55 55 55 53 50 50 50 50 49 48 48 48 47 46 46 46 45 45 44 44 44 44 44 44 43 42 42 43 38 28 23 26 26 24 21 20 20 22 25 24 27 33 34 33 34 35
55 58 57 56 55 55 55 54 54 55 57 58 58 57 57 57 54 53 55 55 54 55 56 54 53 55 55 55 56 56 56 56 54 53 55 55 55 58 60 59 58 58 58 57 56 54 50 50 51 50 49 46 46 46 46 46 48 47 46 45 44 45 44 44 44 43 43 42 41 41 34 23 21 25 26 24 22 21 20 23 27 26 28 33 34 34 35 37
51 55 57 57 57 57 57 57 56 56 58 59 60 59 58 55 53 56 59 57 56 58 58 56 56 56 56 57 58 57 57 57 55 54 56 56 56 59 60 59 59 59 58 57 56 54 51 50 52 51 49 47 47 47 48 50 50 48 47 46 46 46 44 43 43 42 42 42 40 38 31 21 21 24 25 25 24 22 20 22 28 29 30 33 35 35 36 38
49 50 52 53 54 55 55 54 54 54 56 57 56 54 54 52 53 57 58 57 58 59 59 58 58 58 59 61 61 61 61 60 58 57 58 57 57 59 58 58 59 58 57 55 55 54 53 53 55 54 51 50 50 50 50 50 49 47 46 46 45 44 43 42 42 41 41 41 38 35 29 21 22 26 28 28 29 28 24 23 26 30 33 35 36 36 37 39
46 46 47 47 48 49 49 49 50 50 51 50 48 49 50 48 49 53 54 53 55 57 57 58 58 59 61 63 63 63 63 63 61 59 59 59 58 59 58 57 58 58 57 57 57 57 55 54 54 52 49 49 49 49 47 47 47 45 45 45 44 43 43 42 41 40 40 39 35 31 27 22 24 32 34 33 33 34 32 28 27 32 36 37 38 38 38 38
42 42 42 42 43 44 44 45 46 46 46 45 46 46 46 45 46 49 50 50 51 53 54 56 58 60 63 64 64 63 63 63 61 60 61 62 62 62 62 61 60 58 56 55 55 56 54 51 49 48 47 47 47 47 45 46 47 46 44 43 43 43 43 42 40 39 38 34 29 27 26 23 27 34 36 36 36 36 36 33 31 35 38 39 40 40 38 38
43 43 42 42 42 43 43 44 44 44 44 45 45 44 45 45 46 47 47 48 49 49 51 54 56 59 62 63 63 63 63 64 63 63 64 64 65 66 66 64 63 60 58 56 54 53 52 49 47 48 48 47 47 45 45 48 48 44 42 41 42 42 42 42 40 38 37 30 25 26 26 25 28 33 36 37 37 37 37 36 35 38 40 41 42 42 41 40
44 43 42 42 43 43 43 44 43 44 44 44 44 45 46 46 46 47 47 47 47 48 50 52 53 55 57 59 61 62 63 64 65 65 66 66 66 66 66 65 63 62 62 61 59 56 54 51 50 50 49 48 47 46 47 49 46 42 41 42 42 43 42 42 40 38 36 30 26 26 26 28 30 32 36 38 38 37 38 38 38 41 43 44 44 45 44 43
42 41 41 42 43 43 44 44 44 44 44 44 44 45 45 45 45 46 46 46 46 47 49 50 51 52 54 56 58 60 61 62 64 64 64 64 65 64 65 65 63 63 64 64 63 61 59 57 55 53 51 49 49 48 49 49 45 43 43 42 42 42 42 42 40 38 35 29 25 25 27 30 32 32 36 39 39 39 40 39 39 41 45 46 46 47 47 46
41 42 43 43 43 44 44 44 44 44 43 44 45 45 45 45 45 45 45 45 46 46 47 49 49 50 52 53 55 57 57 58 60 60 57 58 60 62 63 63 62 63 64 64 63 62 62 61 59 56 52 51 50 49 49 48 45 44 44 44 43 42 42 42 40 37 33 28 26 26 28 31 33 33 35 40 43 43 42 40 40 42 45 48 48 48 48 47
42 43 43 43 43 44 44 44 43 43 43 44 44 44 45 45 45 46 46 46 45 46 47 48 48 50 51 51 51 52 52 53 55 54 51 52 57 59 60 61 60 60 61 62 62 62 61 59 59 57 54 52 51 49 49 48 46 45 46 45 44 44 43 42 39 34 30 29 29 29 31 33 34 33 34 39 45 46 44 42 41 42 44 47 49 50 50 49
42 42 42 42 43 43 42 42 42 42 43 44 44 45 45 45 46 47 47 47 47 48 48 48 49 50 49 49 49 50 50 51 51 51 49 51 54 55 55 55 55 55 57 58 59 60 60 59 58 58 55 52 50 50 49 48 47 46 47 47 46 45 44 42 38 31 29 31 30 30 34 36 36 33 33 38 44 46 45 44 43 44 45 47 51 52 52 51
41 41 41 41 41 40 40 40 41 41 42 43 43 43 43 44 46 47 47 48 49 49 50 50 50 49 49 50 51 51 51 52 52 51 51 51 53 53 53 53 52 53 54 54 56 58 60 60 60 60 57 53 52 51 49 47 46 47 49 48 46 45 44 42 37 31 29 31 30 31 35 38 37 34 32 34 38 42 44 44 44 45 46 48 51 53 53 53
40 40 39 39 38 38 39 39 39 39 40 41 41 41 41 43 45 45 46 47 48 48 49 49 49 50 51 51 51 52 54 55 54 53 53 53 54 55 55 54 54 54 54 53 54 56 59 62 63 62 59 55 54 53 51 48 47 49 50 48 47 46 45 43 39 34 31 33 32 32 36 38 37 35 34 32 32 35 38 40 42 45 47 49 52 54 55 54
Wind_Direction
256 256 256 257 258 259 259 259 258 254 251 248 247 245 243 241 240 239 238 237 237 237 237 238 238 238 239 240 241 242 243 244 244 245 246 247 248 249 251 252 252 253 254 255 256 257 257 258 259 259 260 260 261 261 262 263 264 265 265 265 265 265 266 267 268 268 269 269 267 264 262 261 261 260 259 260 262 264 264 262 260 260 261 262 263 263 263 263
255 254 254 254 254 256 257 257 258 257 254 250 247 246 244 242 240 239 238 237 236 236 237 237 238 238 239 240 241 243 244 244 245 246 246 247 249 250 251 252 253 254 255 256 257 258 259 259 260 261 261 262 263 263 264 265 265 265 266 266 265 266 267 267 268 269 269 269 267 264 262 260 260 260 260 261 262 261 261 261 261 262 262 262 262 262 262 262
255 254 253 252 252 252 254 255 255 256 256 253 249 246 245 243 241 239 238 237 236 236 236 237 237 238 239 240 241 243 243 244 245 246 247 248 249 250 252 253 254 255 256 257 258 259 260 261 261 262 263 264 264 265 265 266 266 267 267 266 266 267 267 267 268 268 268 268 266 263 261 260 260 261 261 260 259 259 260 261 261 262 262 262 262 262 262 263
256 254 253 252 251 251 251 252 253 253 254 254 252 248 245 243 241 239 238 237 236 236 236 237 237 238 239 240 241 242 243 244 245 246 247 248 249 251 252 254 255 256 257 259 259 260 261 262 263 264 265 265 266 266 267 267 267 268 267 267 267 267 267 267 267 267 267 265 264 262 260 259 260 262 261 258 257 259 261 261 260 260 261 262 262 262 262 263
257 255 253 252 251 250 249 250 250 251 251 252 253 250 246 243 242 240 238 237 236 236 236 236 237 238 238 239 240 241 242 243 245 246 247 248 249 251 252 254 256 257 258 259 260 261 262 263 264 265 266 266 267 267 268 268 268 268 267 267 267 267 266 266 266 265 265 264 263 262 261 259 260 260 259 257 257 259 261 260 258 259 261 262 262 262 262 264
258 256 254 253 251 250 249 248 248 248 248 249 250 251 247 243 241 240 238 237 236 235 235 236 236 237 238 239 239 240 241 242 244 245 246 247 249 251 253 254 256 257 258 260 261 262 263 264 265 266 267 267 267 268 268 268 268 267 266 266 266 266 265 265 264 264 264 263 262 262 261 260 258 258 258 257 257 259 260 259 258 258 260 261 262 262 262 264
259 257 255 253 252 250 249 248 247 246 246 246 247 248 248 244 241 240 238 237 235 235 235 235 235 236 237 237 238 239 240 241 243 245 246 247 249 251 252 254 256 257 259 260 262 263 264 265 266 266 267 267 267 268 268 268 267 266 265 265 265 265 265 264 264 263 263 262 262 262 261 259 258 257 257 258 258 257 258 258 258 258 258 259 261 263 264 264
260 258 256 255 253 251 250 248 247 246 245 244 244 245 246 245 241 239 238 236 235 234 234 234 235 235 235 236 236 238 239 240 243 244 245 247 249 250 252 254 256 257 259 261 262 264 265 266 266 266 267 267 268 268 268 267 266 265 265 265 265 265 264 263 263 262 261 262 263 262 260 259 258 257 258 258 257 255 256 257 258 257 257 258 260 263 265 265
261 260 258 257 255 253 251 249 247 245 244 243 242 242 244 244 241 238 237 235 234 233 233 233 234 234 234 235 235 236 237 239 241 243 244 246 248 249 251 253 255 257 259 261 263 264 265 266 266 267 267 268 268 267 266 266 265 265 266 267 266 264 263 262 262 262 260 261 262 262 261 260 259 259 259 259 257 255 255 257 258 258 258 258 259 261 263 265
264 263 261 259 257 255 252 250 247 245 242 241 240 240 240 241 240 237 236 234 233 232 232 232 232 233 233 233 234 235 236 238 240 242 244 245 247 249 251 253 255 257 259 261 263 264 265 266 267 268 268 268 267 266 266 265 266 266 267 266 265 264 264 263 261 260 260 261 262 263 263 262 261 260 259 259 257 255 255 256 258 258 259 259 259 259 261 263
266 265 263 261 259 256 253 250 246 243 241 239 237 237 237 238 237 236 234 233 232 232 230 230 231 231 232 232 232 233 234 236 238 241 243 244 247 249 251 253 255 257 259 261 262 264 265 266 267 268 268 268 268 266 265 264 264 264 263 263 263 263 264 264 262 260 260 261 262 263 263 263 262 260 259 259 259 257 256 256 257 258 259 259 259 259 259 261
268 267 265 262 259 255 252 248 244 241 238 236 234 234 234 235 235 233 232 231 231 230 229 229 229 230 230 231 231 232 234 236 238 240 242 245 247 249 251 253 255 257 258 260 262 264 265 267 268 268 269 268 266 266 266 265 263 261 260 259 259 259 261 262 263 263 263 262 261 262 263 262 261 259 259 260 260 259 258 257 257 257 258 258 258 259 259 260
270 267 264 260 256 252 248 245 241 238 234 232 230 230 230 231 231 231 230 229 229 229 228 227 228 228 229 230 230 231 233 235 237 239 242 244 246 248 250 252 254 256 258 259 262 263 265 267 268 269 269 267 266 266 265 264 262 260 259 258 257 257 258 261 264 266 266 264 262 262 263 262 261 260 260 261 261 260 259 260 259 258 257 257 258 258 259 260
268 265 261 256 252 247 243 240 236 233 229 227 225 225 226 227 228 228 227 227 227 228 227 226 226 227 228 229 229 230 232 234 236 239 241 243 245 248 250 251 253 255 256 258 260 262 264 266 268 269 268 266 267 266 264 263 262 261 259 257 256 256 257 260 263 265 265 265 264 264 264 262 261 261 261 262 261 260 259 260 260 260 259 258 257 258 259 259
264 260 255 251 246 242 238 234 230 227 224 221 220 221 222 223 225 225 225 225 226 226 226 225 225 226 227 228 228 230 232 234 235 238 241 243 245 247 249 251 252 253 255 257 259 261 264 266 268 269 267 267 267 265 263 263 262 260 258 256 255 255 256 258 260 262 264 265 265 265 264 263 261 261 262 262 262 261 259 258 259 260 261 260 258 259 258 258
259 254 250 245 240 236 232 227 223 220 218 216 216 217 218 220 222 223 223 224 224 225 225 224 224 225 226 227 228 229 231 233 235 238 240 242 244 246 248 249 250 252 254 256 259 261 263 266 268 269 268 267 266 264 264 263 261 258 255 253 253 253 253 254 257 259 262 264 264 264 264 263 261 261 263 264 264 262 260 258 258 259 260 261 260 259 258 257
254 249 244 239 234 229 225 221 217 215 213 212 213 214 216 218 220 221 222 222 223 223 223 223 223 224 225 226 227 228 231 233 235 237 240 242 244 245 246 247 249 252 254 256 259 261 263 266 268 269 268 267 266 266 267 265 263 260 258 255 253 253 253 255 256 257 259 261 262 262 263 264 263 263 263 263 263 263 262 260 259 259 259 260 260 259 258 257
247 242 237 232 227 222 218 214 211 210 208 209 211 212 214 217 219 220 221 221 221 222 222 222 222 223 224 226 227 228 230 232 233 236 238 241 242 244 245 247 249 252 254 256 258 260 263 266 269 268 267 265 264 263 264 263 262 263 262 261 258 257 257 258 257 255 256 259 259 261 263 264 265 264 263 262 262 262 261 261 262 261 260 259 259 259 259 257
241 237 231 225 220 216 212 209 207 205 205 207 209 211 214 216 218 220 220 220 221 221 222 221 222 223 224 225 226 227 229 230 232 235 237 239 241 243 245 247 249 251 253 255 258 260 263 266 268 267 264 262 261 261 261 260 260 259 259 259 260 260 260 260 259 257 257 257 258 261 263 265 266 264 264 264 263 261 259 258 259 261 262 261 260 260 259 258
236 230 224 218 214 210 207 204 203 202 203 205 208 211 213 216 217 219 219 220 220 220 221 221 222 222 223 225 225 226 229 230 232 234 236 239 241 243 245 247 249 250 252 255 257 259 263 267 267 264 261 261 261 262 262 261 259 256 255 255 256 258 259 261 261 259 258 257 257 258 261 265 267 265 264 266 265 263 260 258 257 257 260 261 261 261 259 258
229 223 218 212 208 205 203 201 200 200 202 204 207 210 213 215 217 218 219 219 219 219 220 221 221 222 223 224 225 227 230 231 232 235 237 239 241 242 244 246 247 249 252 255 257 260 264 266 264 261 261 262 263 263 263 261 258 256 256 256 255 255 258 262 263 261 259 259 257 257 260 264 267 267 266 266 266 264 262 260 259 258 259 260 259 260 259 258
221 215 210 205 203 201 199 198 197 198 200 203 207 210 213 215 216 217 218 219 219 219 219 220 221 221 222 224 225 227 229 230 232 234 236 238 239 241 243 245 247 250 253 255 257 260 263 263 260 260 262 264 264 264 263 261 259 258 257 255 255 256 258 260 261 261 261 261 260 259 260 262 264 266 267 266 265 265 263 260 259 259 260 261 259 257 258 257
213 207 202 200 199 198 196 196 196 197 199 202 206 209 212 214 215 217 218 218 219 219 219 220 221 221 222 223 224 227 229 230 231 233 235 236 238 240 243 245 248 250 252 253 256 260 261 260 260 262 265 266 265 264 263 261 260 259 257 256 257 258 259 259 260 260 260 261 261 260 258 260 263 266 268 269 268 267 266 262 258 258 260 262 261 258 257 256
205 201 197 196 196 195 194 194 194 196 198 201 205 208 211 213 214 216 217 218 218 218 218 220 221 221 221 222 224 227 229 229 231 233 235 236 238 241 243 245 248 250 251 252 256 259 260 260 262 263 265 265 264 263 263 262 260 258 258 259 259 259 259 259 261 262 261 261 262 260 257 259 263 266 269 272 272 272 272 269 263 260 259 261 263 261 257 255
200 196 194 193 193 192 192 192 193 194 197 200 205 208 211 212 213 215 216 217 217 218 218 220 222 221 221 222 224 227 229 229 231 232 234 236 238 240 242 245 247 248 250 252 255 258 260 261 261 262 263 264 264 264 263 262 261 259 259 260 260 261 262 263 264 265 266 266 264 263 262 263 266 269 270 271 272 273 275 275 272 266 261 261 263 263 261 257
196 193 192 191 191 190 190 190 191 192 194 199 204 207 210 211 212 214 215 216 217 217 218 219 221 222 221 222 224 227 228 229 231 233 236 238 239 240 242 244 246 247 249 252 255 258 259 260 260 261 263 264 265 265 263 263 263 262 261 261 261 263 264 266 268 270 271 270 268 268 268 267 269 271 271 272 272 272 272 274 275 271 265 261 262 264 264 262
192 190 189 189 189 189 189 188 188 189 191 196 201 204 207 209 211 213 215 216 216 216 217 218 220 221 221 221 224 227 228 229 231 233 236 238 238 239 241 243 245 246 249 251 254 256 257 259 259 260 261 263 265 265 263 264 265 265 263 262 263 264 266 268 272 273 272 272 274 275 272 269 268 270 271 272 273 273 273 273 273 273 269 263 261 261 262 263
189 187 187 187 188 188 188 187 186 189 192 195 199 202 205 207 209 212 214 215 215 215 216 217 219 220 220 221 224 226 227 229 230 231 234 235 236 238 240 242 243 245 248 251 253 255 257 259 259 259 260 262 264 264 265 265 265 264 263 264 266 267 270 272 273 273 273 276 280 279 275 272 270 271 272 273 273 273 273 272 272 272 271 266 259 254 253 255
186 185 184 185 187 188 188 186 187 191 194 195 198 202 205 206 208 211 213 214 213 214 216 217 218 220 220 220 223 225 226 228 229 230 234 236 236 238 239 240 243 245 248 251 254 255 257 258 258 259 260 261 260 262 264 264 262 263 265 267 268 269 271 272 272 273 276 280 281 278 277 277 277 277 277 276 276 275 274 273 271 270 269 265 258 248 246 248
183 182 182 183 185 186 186 186 186 190 193 195 197 201 204 206 209 212 213 212 212 214 215 216 218 219 220 221 223 224 226 227 228 230 234 236 236 237 239 240 244 247 249 252 254 255 255 257 258 258 258 256 256 259 262 263 263 265 267 267 268 269 270 271 273 276 279 280 278 277 279 282 283 283 281 279 278 277 275 273 270 267 265 263 256 247 242 238
181 180 181 182 183 184 185 186 187 188 192 195 196 199 203 206 210 213 213 212 211 213 216 215 216 218 220 221 223 224 226 227 228 229 232 234 234 235 238 241 244 247 249 251 252 252 253 255 256 256 255 253 255 259 262 264 265 266 266 266 267 269 271 272 274 277 279 277 276 277 281 284 286 287 284 281 280 277 274 271 268 265 261 257 251 240 226 217
180 180 181 182 182 184 187 189 189 190 193 195 197 200 204 207 211 213 213 212 210 212 216 215 215 218 219 221 223 225 226 227 227 228 230 232 233 235 238 241 244 246 249 250 250 251 252 254 255 256 256 255 257 261 263 264 264 264 264 266 268 269 270 272 275 277 277 276 278 280 283 285 287 288 286 284 281 276 273 270 265 262 258 252 243 228 211 206
179 181 182 183 184 188 190 190 190 190 194 196 197 203 207 208 212 214 214 212 209 211 216 214 214 217 219 221 223 225 226 226 227 228 230 232 233 236 239 243 245 247 249 250 250 252 254 255 256 256 255 255 257 259 260 262 262 264 266 268 269 270 271 272 274 276 277 279 282 283 284 285 287 288 287 284 279 274 271 265 259 258 253 245 235 219 206 202
180 182 183 185 188 191 192 191 190 190 195 198 198 203 209 211 214 215 215 212 209 211 215 215 215 217 220 222 223 225 226 226 227 229 231 232 234 236 240 243 244 246 247 248 250 252 253 253 253 252 252 254 255 257 258 261 264 266 267 269 271 272 273 273 273 276 278 281 284 285 285 286 288 288 285 281 276 270 265 256 249 247 238 232 224 209 203 200
182 183 184 186 190 193 193 192 191 191 195 198 199 202 209 213 214 215 215 213 211 212 214 215 215 217 220 222 223 224 226 226 227 229 230 232 234 236 239 241 243 244 246 247 249 249 250 250 250 250 250 253 256 257 259 262 264 266 268 271 273 272 272 273 274 276 279 283 284 285 286 287 288 287 281 273 269 263 258 249 238 228 215 212 208 200 200 199
184 186 186 187 191 194 195 194 194 195 196 197 199 204 210 213 214 215 216 214 213 214 215 216 218 219 220 221 223 224 225 226 226 228 231 233 235 237 239 241 242 244 246 247 247 248 248 248 249 251 251 253 256 257 259 262 264 266 269 271 271 270 271 274 275 277 280 283 284 284 285 286 287 284 272 260 256 251 248 242 229 214 201 198 198 195 194 195
186 186 188 190 192 195 197 197 198 200 201 202 204 209 213 214 214 216 216 214 214 216 216 217 220 222 221 221 222 224 225 227 227 229 231 233 235 237 238 240 241 242 244 246 246 247 247 248 250 252 252 253 255 257 259 261 263 266 267 267 268 270 272 274 275 278 281 282 283 283 284 287 286 275 257 247 245 242 240 237 225 211 200 194 192 192 192 193
188 187 189 192 192 193 196 199 201 203 205 207 209 212 215 215 215 217 218 216 216 217 218 217 219 223 223 223 223 223 225 227 228 229 232 233 234 236 238 240 241 242 243 245 246 246 247 249 250 251 252 252 254 256 259 261 263 265 265 265 268 270 272 273 275 278 280 281 282 283 286 288 277 258 244 238 236 234 235 231 221 209 200 194 191 193 195 197
190 189 189 191 193 194 194 196 200 203 206 209 211 214 217 217 215 216 218 217 216 218 219 218 220 224 225 226 226 226 226 227 228 229 232 233 234 235 237 238 239 240 242 244 245 246 247 248 250 250 251 252 254 257 259 260 261 262 264 266 267 268 270 272 275 277 279 282 283 283 286 283 264 245 235 229 225 225 226 221 213 205 197 194 194 195 197 199
193 193 193 193 194 195 196 197 199 203 206 209 212 215 218 218 216 217 220 219 218 220 221 219 221 225 227 229 230 229 228 228 228 230 233 234 235 237 238 239 240 242 243 245 246 247 247 248 250 251 252 254 256 258 259 259 260 262 264 265 265 266 268 271 274 278 281 283 283 283 283 272 248 235 224 217 218 218 214 209 207 204 198 197 198 198 197 197
195 197 199 199 198 199 201 203 205 207 210 212 214 217 220 221 220 221 223 222 221 223 222 220 221 224 226 228 230 231 231 230 229 230 233 234 236 239 241 242 243 244 246 248 249 250 250 250 251 253 254 256 257 258 258 259 260 262 264 264 264 266 268 270 274 279 282 282 283 283 277 256 234 227 219 215 217 214 208 204 204 203 202 202 203 201 197 196
197 199 202 203 204 206 209 211 214 215 216 218 219 221 224 224 224 226 227 225 224 225 224 223 222 224 227 228 229 230 231 231 230 231 233 235 236 240 242 243 244 244 246 247 249 250 249 250 253 254 256 257 256 256 257 259 261 262 262 262 263 265 268 272 277 282 283 283 284 281 270 247 226 218 215 217 218 215 211 209 209 207 206 207 207 205 201 200
200 201 202 203 205 208 211 214 217 219 220 221 222 224 225 225 225 229 229 227 228 228 227 226 225 225 228 229 229 230 231 232 232 232 235 236 237 239 241 243 245 246 247 247 248 250 250 251 253 255 255 255 255 255 257 259 260 259 259 262 265 268 271 276 280 285 286 284 280 271 259 239 217 211 212 214 214 212 210 210 211 210 209 209 209 208 207 205
204 205 205 205 206 208 210 213 215 217 218 220 222 224 225 225 226 229 229 228 228 229 229 229 227 227 229 230 231 232 232 234 234 234 235 236 236 237 238 239 242 245 247 249 250 252 252 252 252 252 252 251 253 255 256 258 258 258 262 265 268 271 273 276 280 284 286 283 270 258 251 235 211 206 209 209 208 208 207 206 207 208 209 210 209 210 212 210
204 206 206 207 208 209 211 213 214 216 217 219 220 222 224 225 226 228 229 229 229 229 229 230 229 229 231 232 233 233 233 234 234 234 235 236 237 238 239 240 241 242 243 245 247 250 252 252 251 251 252 253 254 256 256 257 259 261 264 265 266 268 270 273 277 281 284 277 255 242 242 231 213 205 208 209 208 207 205 204 205 206 208 211 210 211 214 214
203 204 205 207 208 210 211 213 214 216 218 219 220 222 223 225 226 227 228 229 229 229 230 230 230 230 232 233 234 234 234 235 235 235 235 236 238 239 241 242 242 242 243 244 244 245 247 250 251 252 254 255 256 256 255 256 258 261 262 262 264 265 268 273 276 281 284 272 246 233 232 228 219 210 211 214 212 209 207 206 205 205 207 212 214 214 216 217
204 204 206 207 208 210 212 213 215 217 218 219 220 222 223 224 225 226 227 228 229 229 230 231 230 231 232 233 233 234 234 234 236 235 235 237 239 240 242 243 242 243 244 245 245 245 245 247 250 253 254 255 255 253 252 254 258 260 260 260 261 263 266 272 275 281 283 269 246 237 233 229 225 218 215 216 213 210 209 209 208 207 209 213 217 217 218 219
205 206 208 209 209 210 212 214 215 217 219 221 222 223 224 224 225 226 227 228 228 228 229 230 230 231 232 232 233 234 234 235 236 236 236 237 240 241 242 242 242 242 243 244 244 245 245 246 248 250 251 251 250 249 250 253 256 258 258 257 258 261 264 269 275 282 278 263 249 243 233 226 225 221 217 215 212 210 210 211 214 214 212 214 218 220 221 222
206 207 209 210 212 213 214 214 216 218 221 223 224 225 225 226 227 227 227 228 228 228 229 230 230 231 232 233 234 235 235 236 237 238 237 237 238 239 239 240 241 241 242 243 243 243 243 244 245 246 247 247 248 248 250 253 255 256 258 257 258 261 264 268 277 280 266 252 250 245 231 222 222 221 218 215 213 211 211 213 219 221 218 216 218 222 224 225
209 210 210 212 214 216 217 218 219 221 223 225 226 226 227 228 228 229 228 228 229 229 230 230 231 232 233 233 234 235 236 236 237 237 235 235 236 238 238 239 239 239 239 240 241 242 241 241 242 243 243 244 245 247 249 252 254 255 257 258 259 261 264 268 274 272 253 245 248 241 228 222 223 222 219 218 218 216 215 217 221 224 222 219 219 223 225 225
212 213 213 214 216 218 220 221 222 223 225 227 228 229 229 229 229 230 230 230 230 230 231 232 233 234 234 235 235 235 236 236 236 236 235 235 237 238 238 238 238 238 238 238 238 239 239 238 239 239 240 240 242 244 246 249 252 253 254 256 257 259 262 266 270 265 248 240 244 240 228 224 227 229 224 221 222 223 223 225 226 227 225 221 220 222 225 225
213 214 216 216 217 219 221 222 223 224 226 228 229 229 229 228 229 229 230 230 231 232 233 234 234 235 235 236 237 237 237 237 237 237 236 236 237 238 238 238 237 237 237 236 236 236 237 237 238 239 239 239 241 243 244 247 250 252 253 255 256 257 262 266 268 266 250 237 238 239 231 225 228 233 232 228 228 230 232 231 230 228 227 224 221 222 225 226
Height
10590 10592 10592 10594 10594 10596 10598 10600 10603 10607 10610 10614 10618 10621 10625 10630 10636 10640 10646 10650 10655 10660 10666 10671 10676 10680 10684 10689 10693 10696 10700 10703 10706 10708 10710 10712 10715 10718 10720 10722 10724 10727 10729 10731 10733 10735 10737 10739 10742 10743 10745 10747 10748 10750 10750 10750 10752 10754 10754 10753 10750 10748 10752 10754 10754 10756 10762 10772 10779 10782 10781 10777 10768 10764 10772 10773 10768 10767 10775 10788 10792 10792 10792 10792 10794 10796 10796 10796
10580 10581 10582 10584 10586 10586 10588 10590 10592 10596 10600 10604 10608 10612 10615 10620 10625 10630 10636 10641 10646 10652 10658 10663 10668 10672 10676 10682 10686 10689 10692 10696 10700 10700 10704 10708 10710 10712 10714 10716 10718 10720 10723 10726 10727 10729 10731 10733 10736 10737 10739 10740 10742 10743 10744 10745 10746 10746 10746 10744 10742 10744 10748 10750 10749 10751 10758 10764 10768 10773 10773 10770 10761 10758 10769 10772 10764 10760 10768 10782 10786 10786 10786 10786 10788 10790 10791 10791
10568 10570 10572 10574 10576 10577 10578 10580 10583 10586 10588 10593 10598 10602 10606 10610 10615 10620 10626 10632 10638 10644 10650 10655 10660 10664 10670 10675 10679 10682 10686 10690 10692 10694 10698 10702 10703 10706 10708 10710 10712 10715 10718 10720 10721 10723 10725 10727 10729 10731 10732 10734 10735 10736 10738 10739 10738 10739 10740 10736 10736 10740 10743 10745 10745 10746 10752 10756 10758 10763 10765 10762 10754 10754 10766 10768 10757 10752 10764 10778 10782 10781 10779 10779 10783 10785 10785 10786
10556 10558 10560 10562 10564 10567 10568 10570 10573 10576 10578 10582 10586 10592 10596 10600 10605 10610 10616 10622 10629 10636 10642 10647 10652 10657 10662 10668 10672 10676 10679 10684 10686 10688 10693 10696 10697 10700 10702 10704 10707 10709 10712 10713 10715 10716 10719 10721 10722 10725 10726 10728 10728 10729 10732 10732 10731 10733 10732 10728 10730 10735 10736 10738 10740 10742 10745 10746 10747 10752 10758 10755 10750 10752 10760 10758 10749 10750 10763 10772 10775 10775 10772 10772 10776 10778 10780 10782
10543 10545 10548 10550 10553 10556 10558 10560 10562 10566 10568 10572 10576 10580 10586 10590 10595 10600 10606 10612 10620 10626 10633 10638 10644 10650 10656 10661 10665 10668 10672 10678 10680 10682 10686 10689 10691 10694 10696 10699 10701 10703 10705 10706 10709 10710 10712 10715 10716 10718 10720 10720 10722 10723 10724 10725 10726 10727 10724 10721 10726 10729 10730 10732 10734 10734 10738 10738 10738 10743 10750 10751 10748 10747 10750 10747 10744 10751 10760 10764 10768 10770 10768 10766 10768 10772 10776 10778
10530 10532 10534 10538 10540 10544 10546 10549 10552 10554 10558 10562 10565 10569 10575 10581 10586 10591 10597 10603 10610 10618 10624 10630 10637 10642 10648 10654 10658 10662 10667 10672 10673 10674 10679 10682 10685 10688 10690 10693 10695 10697 10698 10700 10703 10704 10707 10708 10710 10712 10713 10714 10716 10716 10718 10719 10720 10720 10716 10715 10720 10722 10724 10726 10726 10729 10732 10730 10730 10735 10742 10744 10742 10742 10740 10736 10742 10752 10754 10755 10762 10766 10764 10760 10760 10766 10772 10774
10517 10519 10522 10524 10528 10532 10534 10538 10540 10544 10547 10551 10555 10558 10564 10570 10577 10582 10588 10594 10600 10608 10615 10622 10628 10635 10642 10646 10652 10656 10661 10666 10665 10666 10673 10676 10679 10682 10684 10687 10689 10691 10692 10695 10697 10698 10700 10702 10704 10705 10706 10708 10708 10710 10712 10714 10714 10713 10708 10710 10714 10716 10718 10719 10720 10724 10724 10720 10722 10730 10734 10736 10736 10736 10732 10730 10740 10748 10746 10748 10756 10760 10758 10756 10756 10760 10766 10770
10504 10506 10509 10512 10516 10519 10522 10525 10528 10532 10536 10540 10544 10548 10553 10560 10568 10573 10579 10585 10592 10599 10606 10614 10620 10628 10634 10640 10646 10649 10654 10660 10658 10660 10667 10670 10672 10676 10678 10681 10683 10685 10687 10689 10691 10692 10694 10696 10697 10698 10700 10702 10704 10706 10706 10706 10707 10706 10703 10704 10708 10710 10712 10712 10714 10718 10718 10714 10716 10724 10726 10728 10729 10730 10726 10724 10734 10742 10740 10744 10750 10752 10750 10751 10754 10756 10761 10764
10492 10494 10496 10499 10502 10506 10509 10512 10515 10519 10524 10528 10534 10538 10543 10550 10558 10564 10570 10576 10582 10590 10598 10606 10612 10620 10626 10633 10638 10642 10650 10654 10650 10652 10660 10663 10666 10668 10672 10674 10677 10680 10682 10684 10685 10686 10688 10690 10690 10692 10694 10696 10699 10700 10700 10700 10700 10700 10699 10700 10702 10704 10706 10706 10708 10710 10711 10710 10710 10715 10718 10722 10722 10723 10722 10716 10723 10734 10738 10742 10744 10744 10744 10746 10752 10755 10756 10759
10480 10481 10483 10486 10488 10492 10494 10498 10501 10506 10511 10517 10522 10528 10534 10540 10548 10554 10560 10567 10574 10581 10589 10597 10605 10612 10620 10626 10630 10638 10644 10644 10641 10647 10654 10656 10658 10662 10666 10669 10672 10674 10676 10678 10680 10680 10682 10684 10684 10686 10689 10690 10692 10692 10694 10694 10694 10696 10696 10694 10695 10697 10699 10700 10702 10703 10704 10706 10707 10709 10712 10715 10716 10716 10714 10706 10712 10728 10734 10738 10740 10736 10736 10741 10747 10750 10752 10755
10466 10467 10468 10470 10473 10476 10478 10482 10486 10492 10498 10504 10511 10518 10524 10530 10538 10544 10552 10558 10565 10573 10580 10589 10598 10604 10612 10618 10624 10632 10635 10632 10635 10642 10644 10648 10654 10657 10660 10664 10666 10668 10670 10672 10674 10675 10676 10678 10680 10682 10684 10685 10686 10686 10687 10688 10691 10692 10690 10689 10690 10691 10692 10693 10694 10696 10700 10703 10702 10704 10706 10709 10708 10707 10704 10698 10706 10722 10730 10734 10734 10730 10730 10734 10739 10743 10746 10750
10452 10452 10453 10454 10456 10460 10462 10466 10472 10478 10485 10492 10500 10507 10513 10520 10528 10535 10542 10550 10557 10564 10572 10581 10590 10597 10604 10610 10616 10624 10626 10625 10630 10636 10638 10644 10648 10652 10655 10658 10660 10662 10664 10666 10668 10670 10671 10673 10674 10676 10679 10680 10680 10680 10682 10683 10686 10687 10685 10684 10685 10686 10686 10686 10688 10692 10696 10697 10696 10700 10703 10702 10698 10697 10696 10692 10702 10716 10724 10728 10727 10724 10724 10727 10732 10736 10740 10746
10436 10436 10437 10438 10441 10444 10448 10452 10458 10464 10472 10481 10489 10496 10502 10510 10518 10526 10534 10542 10548 10556 10564 10574 10582 10590 10597 10602 10610 10617 10616 10618 10626 10630 10634 10638 10642 10646 10649 10652 10654 10657 10659 10661 10662 10664 10666 10668 10669 10672 10674 10672 10674 10677 10677 10676 10679 10681 10680 10680 10680 10680 10680 10680 10685 10688 10690 10689 10692 10698 10698 10693 10690 10690 10689 10689 10698 10710 10720 10722 10718 10715 10717 10722 10727 10730 10736 10742
10420 10421 10422 10424 10428 10431 10435 10440 10446 10452 10461 10470 10478 10486 10493 10501 10510 10518 10526 10534 10540 10548 10558 10566 10574 10582 10588 10596 10604 10608 10608 10614 10621 10624 10628 10632 10636 10640 10643 10646 10648 10651 10654 10656 10657 10659 10661 10662 10664 10668 10666 10666 10670 10672 10670 10670 10674 10674 10674 10674 10674 10674 10674 10677 10682 10683 10682 10683 10688 10693 10689 10684 10684 10684 10684 10685 10692 10704 10716 10716 10708 10706 10709 10716 10722 10724 10730 10735
10406 10408 10410 10412 10416 10420 10424 10430 10436 10443 10452 10461 10468 10476 10484 10493 10501 10510 10518 10526 10533 10542 10550 10558 10568 10574 10582 10590 10596 10598 10603 10610 10614 10618 10622 10626 10631 10634 10637 10640 10642 10645 10648 10650 10652 10654 10656 10658 10660 10661 10660 10662 10666 10665 10663 10666 10668 10668 10668 10668 10668 10668 10670 10673 10677 10677 10676 10680 10686 10686 10680 10676 10680 10680 10678 10681 10685 10697 10710 10707 10700 10700 10700 10707 10715 10718 10723 10728
10395 10396 10400 10403 10407 10412 10416 10421 10428 10436 10444 10452 10460 10468 10477 10485 10494 10502 10510 10518 10526 10535 10543 10552 10560 10568 10576 10582 10586 10592 10598 10604 10608 10612 10616 10620 10625 10628 10631 10634 10636 10639 10642 10644 10646 10649 10651 10652 10654 10655 10655 10658 10660 10658 10658 10662 10662 10661 10662 10662 10662 10663 10665 10666 10672 10673 10671 10676 10681 10678 10672 10670 10674 10676 10676 10678 10680 10690 10700 10698 10696 10696 10695 10700 10706 10710 10716 10721
10385 10387 10390 10395 10400 10404 10408 10414 10421 10430 10438 10446 10454 10462 10470 10478 10486 10495 10504 10512 10520 10528 10536 10546 10553 10560 10568 10572 10578 10588 10594 10598 10604 10606 10610 10614 10619 10622 10625 10628 10630 10634 10637 10639 10641 10644 10646 10648 10649 10650 10650 10652 10653 10652 10654 10654 10653 10654 10654 10656 10656 10658 10658 10660 10669 10670 10666 10672 10675 10672 10666 10664 10668 10674 10674 10674 10676 10686 10692 10689 10689 10691 10692 10694 10698 10702 10708 10713
10376 10380 10384 10388 10393 10397 10402 10408 10416 10424 10432 10440 10448 10456 10464 10472 10481 10489 10498 10506 10514 10522 10531 10540 10546 10554 10562 10567 10576 10585 10588 10592 10597 10600 10604 10608 10612 10616 10618 10622 10626 10629 10632 10634 10636 10638 10641 10643 10644 10646 10646 10647 10646 10647 10648 10646 10646 10648 10648 10650 10651 10653 10654 10654 10662 10664 10664 10667 10668 10667 10664 10660 10664 10668 10668 10668 10674 10682 10684 10682 10683 10684 10686 10688 10692 10696 10701 10706
10370 10373 10378 10382 10387 10392 10397 10404 10412 10420 10428 10436 10444 10452 10460 10468 10476 10484 10494 10502 10510 10516 10526 10534 10540 10548 10556 10561 10570 10578 10580 10585 10590 10594 10598 10602 10606 10609 10612 10617 10620 10624 10626 10628 10630 10634 10636 10638 10640 10640 10640 10640 10640 10642 10643 10642 10643 10644 10644 10645 10646 10648 10648 10646 10652 10658 10660 10662 10664 10664 10660 10656 10658 10662 10662 10662 10670 10676 10678 10678 10679 10678 10678 10682 10686 10690 10694 10698
10364 10368 10372 10376 10382 10386 10393 10400 10408 10416 10424 10432 10440 10448 10456 10465 10473 10482 10490 10497 10503 10512 10522 10528 10533 10542 10548 10554 10564 10573 10574 10578 10585 10589 10592 10596 10600 10603 10607 10612 10615 10618 10621 10622 10626 10629 10632 10634 10634 10633 10632 10634 10636 10638 10637 10637 10639 10640 10640 10642 10643 10642 10639 10638 10644 10652 10654 10656 10660 10660 10656 10654 10652 10654 10656 10658 10662 10667 10670 10672 10674 10674 10674 10676 10680 10682 10687 10691
10358 10362 10368 10372 10377 10383 10390 10398 10406 10414 10420 10429 10438 10446 10454 10462 10470 10477 10483 10489 10498 10508 10516 10520 10527 10536 10543 10550 10563 10568 10568 10573 10580 10584 10588 10591 10594 10598 10602 10606 10610 10612 10614 10618 10622 10625 10627 10628 10626 10626 10627 10630 10632 10632 10632 10631 10633 10634 10636 10638 10637 10635 10634 10634 10638 10644 10648 10651 10654 10656 10656 10653 10647 10646 10652 10654 10655 10656 10661 10666 10668 10668 10669 10672 10675 10676 10680 10684
10354 10359 10364 10369 10374 10380 10388 10396 10404 10410 10418 10427 10436 10444 10451 10458 10465 10471 10478 10486 10495 10504 10510 10516 10523 10531 10539 10548 10558 10560 10560 10568 10574 10578 10582 10586 10588 10592 10596 10600 10604 10606 10610 10614 10618 10620 10621 10620 10618 10620 10624 10626 10627 10628 10626 10626 10627 10630 10631 10630 10629 10629 10630 10630 10630 10636 10643 10645 10648 10652 10654 10650 10643 10641 10644 10648 10650 10648 10652 10659 10661 10662 10664 10665 10667 10670 10674 10676
10351 10356 10360 10366 10372 10378 10386 10394 10401 10408 10418 10426 10434 10442 10447 10454 10462 10468 10475 10483 10490 10499 10506 10512 10517 10526 10536 10544 10550 10552 10554 10562 10568 10572 10576 10580 10582 10586 10590 10595 10597 10600 10606 10610 10612 10614 10613 10612 10614 10617 10620 10621 10622 10622 10620 10621 10623 10624 10625 10624 10624 10625 10626 10624 10624 10630 10638 10640 10643 10647 10648 10644 10640 10638 10638 10640 10642 10642 10642 10648 10654 10657 10658 10657 10658 10664 10668 10670
10348 10353 10358 10364 10370 10378 10385 10392 10400 10408 10416 10424 10432 10438 10444 10452 10459 10465 10472 10479 10487 10494 10501 10506 10512 10522 10532 10538 10543 10544 10548 10557 10564 10568 10572 10574 10577 10582 10586 10588 10592 10596 10602 10605 10606 10607 10605 10606 10611 10614 10616 10616 10617 10616 10616 10617 10618 10620 10620 10619 10620 10620 10620 10619 10620 10625 10632 10636 10638 10640 10642 10641 10636 10636 10636 10635 10635 10635 10633 10636 10644 10650 10652 10650 10650 10655 10660 10662
10346 10352 10357 10363 10370 10377 10384 10391 10398 10406 10414 10423 10430 10435 10442 10450 10456 10462 10468 10476 10482 10490 10497 10504 10510 10518 10526 10533 10538 10538 10544 10554 10560 10562 10564 10566 10573 10578 10579 10582 10587 10592 10596 10598 10600 10600 10599 10603 10607 10608 10610 10612 10612 10612 10612 10612 10613 10615 10616 10614 10615 10615 10615 10616 10616 10620 10627 10630 10632 10633 10636 10636 10632 10632 10632 10631 10630 10630 10628 10626 10630 10638 10644 10644 10643 10646 10651 10654
10345 10350 10356 10362 10370 10376 10383 10390 10398 10406 10414 10422 10428 10433 10440 10446 10452 10458 10465 10472 10478 10486 10495 10501 10505 10512 10520 10528 10530 10531 10540 10549 10553 10557 10558 10561 10570 10572 10572 10578 10582 10586 10590 10592 10595 10594 10595 10598 10602 10604 10605 10606 10607 10608 10608 10608 10609 10610 10610 10610 10610 10611 10612 10612 10612 10616 10621 10622 10624 10626 10630 10630 10629 10627 10626 10625 10626 10626 10625 10622 10620 10624 10632 10638 10638 10640 10643 10646
10344 10350 10356 10362 10370 10376 10382 10390 10398 10406 10413 10418 10424 10430 10437 10444 10450 10456 10462 10468 10476 10484 10490 10496 10500 10508 10514 10522 10524 10528 10538 10542 10548 10554 10552 10556 10564 10564 10568 10574 10576 10580 10583 10586 10590 10590 10590 10593 10596 10598 10600 10602 10602 10602 10603 10604 10605 10606 10605 10605 10606 10607 10608 10609 10610 10611 10613 10614 10617 10618 10620 10623 10624 10622 10620 10620 10620 10618 10618 10618 10614 10614 10622 10630 10636 10637 10637 10639
10344 10350 10356 10363 10370 10376 10383 10390 10397 10402 10408 10414 10422 10428 10434 10441 10448 10453 10458 10465 10474 10481 10486 10491 10496 10502 10509 10516 10519 10524 10532 10536 10542 10546 10544 10548 10558 10560 10564 10568 10570 10574 10577 10580 10584 10584 10584 10588 10591 10593 10596 10598 10597 10596 10598 10600 10602 10600 10600 10601 10603 10604 10604 10606 10606 10606 10607 10611 10612 10609 10607 10612 10617 10617 10615 10614 10614 10613 10612 10611 10610 10610 10614 10622 10629 10632 10631 10634
10345 10350 10357 10364 10370 10376 10383 10390 10396 10401 10408 10414 10421 10427 10433 10440 10445 10450 10456 10463 10471 10476 10480 10486 10490 10497 10506 10511 10514 10520 10526 10529 10534 10539 10540 10546 10554 10556 10558 10562 10564 10568 10572 10576 10578 10578 10580 10582 10585 10588 10592 10593 10592 10591 10594 10596 10596 10595 10596 10598 10600 10600 10601 10602 10601 10600 10604 10608 10606 10600 10598 10602 10610 10611 10610 10608 10607 10606 10605 10604 10605 10605 10608 10614 10620 10624 10626 10630
10346 10351 10358 10364 10370 10378 10384 10390 10395 10401 10408 10413 10419 10426 10432 10438 10442 10446 10453 10460 10467 10470 10474 10481 10488 10494 10501 10505 10509 10515 10518 10522 10530 10536 10538 10542 10548 10550 10552 10556 10559 10563 10567 10570 10572 10573 10574 10576 10580 10584 10586 10588 10586 10586 10589 10591 10592 10591 10592 10594 10595 10596 10598 10598 10597 10598 10602 10604 10599 10593 10592 10596 10602 10604 10603 10602 10600 10598 10596 10598 10598 10599 10602 10608 10613 10618 10623 10628
10346 10352 10358 10364 10371 10378 10383 10388 10393 10398 10404 10410 10416 10424 10429 10434 10440 10444 10450 10456 10462 10467 10472 10478 10485 10490 10495 10500 10504 10508 10512 10519 10528 10532 10533 10534 10540 10544 10546 10550 10554 10558 10561 10564 10566 10566 10568 10572 10575 10577 10580 10582 10580 10582 10584 10586 10588 10588 10586 10588 10590 10592 10594 10593 10593 10594 10598 10597 10592 10588 10590 10592 10594 10596 10596 10595 10593 10589 10588 10591 10592 10592 10596 10602 10607 10614 10618 10620
10346 10352 10358 10364 10370 10376 10382 10386 10392 10398 10403 10409 10416 10422 10427 10432 10438 10442 10446 10451 10458 10464 10466 10474 10481 10485 10490 10495 10500 10504 10510 10516 10522 10525 10526 10529 10535 10538 10540 10544 10548 10551 10554 10557 10558 10560 10563 10568 10570 10572 10574 10576 10576 10578 10580 10582 10584 10584 10582 10583 10586 10587 10588 10589 10588 10590 10592 10590 10586 10585 10586 10588 10588 10590 10589 10588 10584 10581 10582 10586 10586 10586 10590 10596 10601 10608 10610 10611
10347 10352 10358 10364 10370 10375 10380 10386 10392 10398 10403 10409 10415 10420 10426 10431 10434 10436 10440 10446 10455 10458 10461 10470 10476 10480 10486 10491 10496 10500 10504 10510 10516 10518 10520 10524 10530 10534 10536 10539 10542 10546 10548 10550 10552 10554 10558 10564 10566 10567 10568 10569 10571 10573 10574 10576 10578 10578 10578 10578 10581 10582 10583 10584 10584 10585 10586 10584 10582 10580 10581 10582 10583 10584 10583 10580 10578 10576 10578 10582 10582 10582 10586 10590 10594 10600 10602 10604
10346 10352 10358 10364 10370 10374 10380 10385 10390 10396 10402 10407 10412 10418 10424 10428 10428 10430 10436 10444 10452 10455 10458 10466 10472 10478 10483 10486 10491 10494 10498 10505 10510 10512 10516 10521 10526 10528 10530 10534 10537 10540 10541 10544 10548 10550 10554 10558 10560 10562 10562 10562 10565 10568 10569 10570 10573 10574 10573 10574 10576 10576 10576 10578 10580 10580 10580 10580 10578 10574 10574 10577 10578 10579 10577 10574 10572 10572 10572 10576 10576 10578 10582 10584 10588 10592 10595 10598
10346 10352 10358 10363 10368 10373 10378 10384 10390 10395 10400 10404 10410 10416 10419 10420 10422 10426 10432 10440 10448 10452 10456 10462 10469 10474 10477 10480 10485 10488 10493 10500 10504 10506 10510 10516 10520 10522 10524 10527 10531 10533 10535 10538 10542 10544 10548 10551 10552 10555 10558 10558 10558 10561 10564 10566 10568 10570 10569 10569 10571 10570 10570 10572 10574 10575 10575 10575 10573 10568 10569 10573 10573 10573 10572 10570 10568 10568 10568 10570 10572 10573 10577 10580 10583 10587 10590 10592
10346 10352 10358 10362 10367 10372 10378 10382 10388 10393 10398 10403 10408 10410 10410 10413 10418 10424 10430 10439 10446 10451 10456 10462 10466 10468 10470 10475 10480 10484 10489 10494 10498 10502 10506 10510 10514 10516 10518 10522 10525 10528 10529 10532 10536 10538 10542 10544 10544 10548 10553 10554 10553 10555 10558 10560 10562 10564 10566 10565 10564 10563 10564 10566 10567 10568 10570 10570 10567 10562 10564 10568 10568 10568 10568 10566 10564 10564 10563 10564 10566 10569 10572 10576 10578 10582 10585 10588
10346 10352 10356 10362 10366 10371 10376 10382 10386 10392 10396 10400 10402 10403 10406 10412 10418 10422 10430 10438 10444 10448 10452 10458 10459 10460 10464 10471 10476 10480 10484 10488 10493 10498 10500 10504 10507 10510 10512 10514 10518 10521 10522 10525 10528 10532 10536 10539 10540 10543 10548 10549 10548 10549 10552 10554 10554 10558 10560 10560 10556 10557 10559 10560 10561 10562 10563 10564 10560 10556 10560 10564 10564 10562 10562 10560 10559 10560 10560 10562 10564 10566 10570 10572 10576 10580 10582 10584
10344 10350 10355 10360 10364 10369 10374 10380 10384 10389 10393 10396 10397 10399 10405 10412 10416 10422 10430 10435 10439 10442 10444 10448 10452 10454 10460 10465 10468 10474 10478 10482 10488 10492 10493 10497 10501 10503 10505 10508 10512 10514 10516 10518 10522 10526 10532 10534 10535 10538 10542 10544 10544 10544 10548 10549 10549 10551 10552 10552 10552 10552 10552 10554 10555 10556 10556 10558 10556 10552 10555 10560 10558 10556 10555 10556 10556 10556 10558 10560 10561 10564 10566 10570 10573 10576 10578 10580
10344 10349 10354 10358 10362 10366 10372 10376 10381 10385 10388 10390 10393 10398 10404 10407 10412 10420 10424 10428 10432 10434 10436 10444 10449 10452 10456 10459 10462 10468 10472 10476 10482 10486 10486 10491 10495 10496 10497 10500 10504 10506 10508 10512 10516 10522 10528 10528 10530 10533 10535 10538 10539 10540 10542 10544 10542 10544 10544 10546 10546 10546 10547 10548 10549 10550 10550 10552 10550 10547 10550 10555 10553 10550 10550 10552 10552 10554 10556 10557 10558 10560 10562 10566 10569 10572 10574 10576
10343 10348 10352 10355 10360 10364 10368 10372 10376 10380 10382 10386 10390 10394 10399 10403 10411 10416 10417 10422 10428 10429 10433 10442 10446 10448 10452 10454 10457 10462 10466 10471 10478 10480 10481 10486 10489 10488 10490 10495 10498 10500 10503 10507 10510 10516 10522 10524 10524 10526 10530 10534 10536 10536 10536 10536 10535 10536 10538 10540 10540 10540 10542 10542 10543 10545 10545 10546 10544 10542 10546 10550 10548 10546 10546 10548 10548 10550 10552 10553 10555 10558 10560 10562 10566 10568 10570 10572
10340 10344 10348 10352 10357 10361 10365 10368 10372 10376 10379 10382 10386 10392 10396 10402 10410 10412 10410 10418 10424 10424 10429 10436 10440 10442 10446 10448 10450 10456 10460 10466 10473 10475 10476 10481 10483 10481 10485 10490 10494 10496 10500 10504 10506 10512 10518 10518 10518 10520 10525 10528 10530 10529 10529 10528 10529 10532 10532 10532 10533 10534 10536 10538 10539 10540 10540 10540 10538 10538 10541 10545 10546 10544 10544 10544 10544 10546 10548 10550 10552 10554 10558 10560 10562 10564 10566 10568
10336 10340 10345 10350 10355 10359 10362 10366 10370 10374 10376 10380 10385 10391 10394 10400 10404 10404 10404 10413 10418 10418 10424 10430 10434 10438 10438 10440 10444 10448 10453 10458 10466 10469 10471 10476 10477 10476 10481 10485 10486 10490 10496 10499 10501 10505 10511 10513 10512 10516 10520 10522 10522 10522 10522 10522 10524 10526 10526 10525 10526 10528 10531 10534 10536 10536 10535 10534 10533 10534 10536 10540 10542 10540 10540 10540 10541 10542 10544 10547 10550 10552 10554 10556 10558 10561 10562 10565
10334 10338 10342 10348 10352 10356 10361 10364 10368 10370 10374 10378 10384 10388 10390 10396 10400 10399 10402 10410 10413 10416 10421 10426 10430 10432 10432 10435 10439 10443 10448 10454 10460 10464 10466 10470 10472 10473 10477 10479 10480 10485 10490 10493 10494 10498 10504 10507 10508 10510 10514 10514 10514 10516 10518 10518 10518 10518 10518 10520 10522 10525 10528 10530 10531 10531 10529 10528 10528 10528 10531 10535 10536 10534 10534 10534 10537 10539 10540 10542 10544 10548 10550 10553 10556 10558 10560 10562
10334 10338 10342 10346 10350 10354 10358 10360 10364 10368 10372 10376 10380 10383 10387 10392 10395 10395 10399 10404 10408 10412 10416 10420 10424 10426 10426 10429 10434 10439 10444 10449 10454 10458 10460 10462 10465 10466 10468 10472 10475 10480 10484 10486 10488 10491 10496 10500 10502 10502 10506 10507 10507 10510 10512 10512 10510 10512 10516 10518 10520 10522 10523 10524 10526 10524 10523 10522 10523 10524 10526 10529 10530 10529 10529 10530 10533 10535 10536 10538 10539 10542 10545 10548 10552 10554 10556 10559
10332 10336 10340 10344 10348 10352 10355 10358 10362 10366 10370 10372 10376 10380 10383 10386 10390 10392 10396 10400 10403 10408 10410 10412 10417 10420 10422 10426 10430 10434 10439 10442 10446 10450 10452 10454 10457 10459 10462 10466 10472 10476 10478 10480 10484 10486 10489 10494 10495 10496 10499 10501 10502 10504 10506 10504 10505 10510 10514 10514 10515 10516 10516 10518 10520 10520 10518 10518 10518 10518 10520 10522 10524 10526 10526 10527 10529 10531 10532 10534 10536 10538 10540 10544 10547 10550 10552 10555
10329 10333 10338 10342 10346 10349 10352 10356 10360 10362 10366 10370 10373 10376 10378 10382 10386 10388 10392 10395 10398 10402 10404 10407 10411 10414 10416 10420 10424 10427 10431 10434 10436 10440 10444 10447 10450 10454 10456 10461 10467 10472 10472 10475 10479 10482 10484 10487 10488 10490 10494 10496 10496 10500 10500 10498 10501 10506 10508 10508 10510 10510 10511 10512 10514 10514 10514 10514 10514 10514 10515 10516 10519 10522 10522 10522 10525 10527 10529 10531 10533 10535 10536 10539 10542 10545 10548 10551
10328 10332 10336 10338 10342 10346 10349 10352 10356 10358 10362 10366 10369 10372 10375 10379 10382 10384 10388 10390 10394 10398 10400 10402 10406 10408 10410 10414 10416 10419 10423 10426 10428 10432 10438 10442 10446 10450 10452 10455 10461 10466 10466 10470 10474 10476 10479 10482 10482 10485 10488 10490 10490 10492 10493 10494 10497 10500 10500 10502 10504 10506 10506 10507 10508 10510 10510 10510 10510 10510 10512 10512 10514 10516 10517 10518 10521 10522 10525 10527 10530 10532 10534 10535 10538 10540 10544 10547
10325 10329 10332 10335 10339 10342 10345 10348 10352 10356 10360 10362 10366 10369 10372 10375 10378 10380 10384 10386 10390 10393 10394 10396 10400 10402 10404 10407 10410 10412 10417 10420 10422 10426 10435 10440 10442 10444 10446 10449 10454 10458 10460 10463 10466 10470 10472 10475 10477 10480 10482 10482 10484 10486 10487 10490 10492 10494 10494 10497 10500 10501 10502 10502 10504 10505 10505 10506 10506 10506 10507 10508 10510 10512 10513 10514 10516 10518 10520 10523 10526 10528 10530 10532 10534 10536 10539 10542
10322 10325 10328 10332 10336 10338 10342 10346 10350 10354 10356 10359 10362 10366 10368 10372 10374 10377 10380 10382 10386 10388 10390 10392 10395 10396 10398 10402 10406 10409 10414 10416 10418 10424 10432 10436 10434 10435 10438 10442 10446 10450 10454 10456 10459 10462 10465 10468 10470 10472 10475 10476 10478 10481 10483 10486 10488 10488 10488 10492 10494 10496 10496 10498 10500 10501 10501 10501 10501 10502 10503 10504 10505 10507 10509 10510 10512 10514 10516 10519 10522 10524 10526 10528 10530 10532 10534 10538
10319 10322 10326 10329 10332 10336 10340 10344 10348 10351 10353 10356 10358 10362 10364 10368 10370 10372 10375 10378 10380 10382 10385 10388 10390 10392 10396 10400 10402 10406 10408 10412 10414 10420 10426 10427 10426 10428 10433 10436 10440 10444 10446 10449 10452 10455 10458 10461 10462 10465 10469 10472 10473 10475 10478 10480 10482 10484 10484 10486 10490 10490 10492 10494 10496 10497 10497 10496 10498 10498 10500 10500 10502 10503 10504 10506 10508 10510 10513 10516 10518 10520 10522 10524 10526 10527 10530 10532
10316 10320 10324 10327 10331 10336 10339 10342 10344 10348 10350 10352 10354 10358 10360 10364 10366 10368 10370 10373 10376 10378 10380 10383 10386 10390 10392 10394 10397 10400 10403 10405 10408 10412 10417 10420 10422 10424 10428 10431 10434 10437 10440 10443 10446 10448 10450 10453 10454 10456 10462 10466 10466 10468 10472 10474 10476 10478 10478 10481 10484 10485 10486 10488 10491 10493 10493 10493 10494 10494 10495 10496 10498 10499 10501 10502 10504 10508 10510 10512 10514 10516 10518 10520 10521 10522 10524 10527
10314 10318 10322 10326 10330 10333 10335 10338 10342 10344 10346 10348 10351 10354 10356 10358 10361 10364 10366 10368 10372 10374 10376 10380 10382 10384 10386 10388 10392 10394 10395 10397 10402 10406 10410 10414 10416 10417 10420 10424 10428 10430 10432 10436 10439 10440 10442 10444 10446 10449 10454 10458 10460 10461 10465 10468 10470 10472 10473 10476 10478 10480 10482 10483 10485 10488 10490 10490 10490 10490 10491 10493 10494 10496 10498 10500 10501 10503 10505 10507 10509 10511 10514 10516 10516 10518 10520 10522